Location: Minneapolis
(45.0000°N, 93.0000°W)
Time: 07:17:50
(UTC-05:00)

Envisat - Pass Details

Date: 10 March 2018
Orbit: 764 x 766 km, 98.2° (Epoch: 19 June)

Event Time Altitude Azimuth Distance (km) Brightness Sun altitude
Rises 19:03:07 0° 149° (SSE) 3,216 5.9 -9.9°
Reaches altitude 10° 19:05:27 10° 144° (SE) 2,294 5.1 -10.3°
Maximum altitude 19:10:19 50° 71° (ENE) 972 3.2 -11.2°
Drops below altitude 10° 19:15:13 10° 357° (N) 2,310 5.6 -12.0°
Sets 19:17:35 0° 352° (N) 3,241 6.4 -12.5°
